Total_Precipitation_Accumulation
0.81 0.93 1.14 1.37 1.61 1.87 2.17 2.49 2.74 2.89 2.79 2.56 2.31 2.11 1.94 1.85 1.66 1.57 1.50 1.46 1.46 1.55 1.80 1.71 1.81 1.86 1.81 1.79 1.85 1.86 1.72 1.47 1.69 1.72 1.30 0.89 0.71 0.67 0.49 0.47 0.46 0.42 0.43
0.83 1.06 1.21 1.30 1.47 1.74 2.13 2.40 2.71 2.81 2.61 2.33 2.16 2.07 2.03 1.76 1.54 1.54 1.53 1.53 1.58 1.59 1.67 1.71 1.72 1.76 1.74 1.63 1.60 1.69 1.54 1.31 1.49 1.56 1.46 0.94 0.72 0.59 0.46 0.51 0.56 0.54 0.56
1.23 1.32 1.22 1.24 1.35 1.54 1.78 1.98 2.07 2.05 1.94 1.91 1.95 1.97 1.97 1.74 1.69 1.77 1.81 1.78 1.79 1.76 1.76 1.70 1.59 1.47 1.42 1.34 1.36 1.47 1.46 1.32 1.32 1.51 1.66 1.28 0.90 0.81 0.64 0.62 0.62 0.68 0.72
1.04 1.06 1.14 1.22 1.34 1.46 1.63 1.80 1.79 1.65 1.53 1.58 1.77 1.84 1.81 1.76 1.91 2.15 2.07 1.85 1.69 1.56 1.40 1.28 1.26 1.22 1.21 1.11 1.06 1.17 1.22 1.15 1.10 1.24 1.39 1.46 1.41 1.29 0.84 0.61 0.57 0.68 0.76
0.83 0.85 0.98 1.08 1.11 1.23 1.32 1.48 1.58 1.50 1.45 1.47 1.54 1.66 1.69 1.69 1.69 1.69 1.65 1.54 1.38 1.19 1.02 0.94 0.94 0.93 0.93 0.88 0.85 0.87 0.89 0.93 0.94 1.07 1.24 1.34 1.39 1.38 1.25 0.87 0.81 0.82 0.76
0.75 0.79 0.82 0.86 0.93 1.01 1.02 1.00 1.11 1.18 1.23 1.27 1.30 1.33 1.30 1.27 1.21 1.14 1.11 1.05 0.96 0.80 0.68 0.65 0.68 0.73 0.79 0.77 0.75 0.77 0.77 0.83 0.94 0.98 1.09 1.22 1.21 1.22 1.29 1.08 0.97 0.92 0.81
0.57 0.66 0.68 0.69 0.75 0.80 0.78 0.79 0.85 0.97 0.97 0.93 0.96 0.98 0.96 0.91 0.85 0.85 0.82 0.79 0.73 0.62 0.56 0.54 0.56 0.64 0.70 0.68 0.64 0.65 0.74 0.87 0.96 0.94 1.01 1.13 1.16 1.20 1.30 1.25 1.14 1.06 1.02
0.46 0.55 0.62 0.66 0.65 0.63 0.64 0.67 0.70 0.75 0.72 0.68 0.70 0.70 0.73 0.72 0.68 0.68 0.60 0.57 0.58 0.59 0.57 0.52 0.53 0.55 0.59 0.59 0.62 0.62 0.69 0.81 0.89 0.86 1.00 1.10 1.17 1.30 1.42 1.44 1.40 1.26 1.15
0.45 0.45 0.46 0.50 0.49 0.46 0.46 0.51 0.60 0.65 0.66 0.66 0.63 0.59 0.59 0.57 0.52 0.49 0.47 0.45 0.47 0.50 0.57 0.56 0.57 0.59 0.63 0.66 0.72 0.77 0.85 0.99 1.06 1.11 1.21 1.24 1.20 1.25 1.33 1.40 1.44 1.46 1.30
0.23 0.22 0.22 0.23 0.24 0.27 0.34 0.41 0.45 0.46 0.49 0.51 0.53 0.53 0.49 0.44 0.38 0.35 0.36 0.36 0.37 0.41 0.49 0.57 0.58 0.60 0.61 0.65 0.76 0.94 1.10 1.20 1.24 1.28 1.35 1.40 1.35 1.35 1.41 1.41 1.46 1.55 1.45
0.12 0.16 0.18 0.21 0.23 0.27 0.34 0.42 0.44 0.44 0.46 0.45 0.45 0.45 0.43 0.40 0.35 0.30 0.30 0.30 0.33 0.37 0.40 0.47 0.51 0.53 0.57 0.60 0.69 0.83 1.02 1.13 1.16 1.19 1.25 1.26 1.25 1.24 1.23 1.30 1.41 1.54 1.52
0.15 0.17 0.17 0.23 0.28 0.28 0.29 0.35 0.39 0.44 0.53 0.61 0.69 0.70 0.62 0.53 0.44 0.35 0.30 0.30 0.32 0.35 0.36 0.37 0.40 0.41 0.46 0.52 0.63 0.75 0.86 0.95 0.98 0.98 0.98 0.96 0.94 0.97 0.97 1.05 1.14 1.23 1.40
0.11 0.11 0.14 0.20 0.26 0.30 0.32 0.36 0.39 0.43 0.52 0.67 0.91 1.02 0.94 0.80 0.62 0.43 0.29 0.25 0.25 0.28 0.29 0.31 0.35 0.42 0.53 0.62 0.68 0.72 0.76 0.77 0.81 0.88 0.92 0.86 0.82 0.84 0.85 0.88 0.88 0.93 1.11
0.09 0.08 0.11 0.17 0.22 0.29 0.37 0.42 0.45 0.44 0.50 0.62 0.78 0.85 0.78 0.68 0.55 0.37 0.24 0.19 0.19 0.22 0.26 0.31 0.37 0.46 0.53 0.62 0.67 0.68 0.67 0.63 0.59 0.63 0.69 0.71 0.69 0.69 0.74 0.78 0.79 0.82 0.95
0.10 0.08 0.11 0.16 0.19 0.23 0.30 0.32 0.28 0.23 0.28 0.40 0.46 0.51 0.45 0.35 0.30 0.25 0.20 0.19 0.20 0.22 0.26 0.32 0.38 0.43 0.44 0.46 0.43 0.42 0.42 0.40 0.38 0.37 0.40 0.47 0.52 0.55 0.57 0.60 0.72 0.80 0.86
0.08 0.08 0.11 0.16 0.17 0.16 0.17 0.13 0.12 0.13 0.17 0.24 0.28 0.34 0.36 0.29 0.24 0.19 0.16 0.16 0.18 0.22 0.28 0.33 0.38 0.39 0.34 0.37 0.28 0.20 0.20 0.25 0.29 0.33 0.35 0.36 0.39 0.42 0.44 0.44 0.52 0.66 0.75
0.03 0.03 0.06 0.08 0.06 0.05 0.05 0.06 0.07 0.11 0.17 0.22 0.27 0.35 0.37 0.33 0.29 0.22 0.19 0.19 0.21 0.24 0.27 0.28 0.28 0.30 0.34 0.31 0.24 0.15 0.15 0.19 0.22 0.27 0.31 0.28 0.28 0.33 0.35 0.36 0.36 0.39 0.47
0.02 0.01 0.01 0.01 0.01 0.01 0.02 0.03 0.05 0.10 0.15 0.21 0.26 0.31 0.36 0.34 0.31 0.31 0.33 0.34 0.32 0.30 0.30 0.28 0.27 0.32 0.33 0.27 0.22 0.17 0.16 0.21 0.24 0.26 0.29 0.29 0.26 0.26 0.31 0.36 0.35 0.33 0.32
0.01 0.01 0.01 0.01 0.01 0.01 0.02 0.04 0.08 0.10 0.13 0.20 0.28 0.32 0.37 0.38 0.37 0.39 0.40 0.42 0.42 0.37 0.34 0.32 0.34 0.37 0.39 0.30 0.22 0.18 0.20 0.27 0.29 0.30 0.29 0.28 0.27 0.23 0.20 0.28 0.34 0.37 0.36
0.00 0.01 0.01 0.01 0.01 0.03 0.06 0.10 0.12 0.14 0.18 0.23 0.30 0.36 0.41 0.45 0.45 0.47 0.48 0.47 0.50 0.44 0.38 0.35 0.38 0.42 0.48 0.43 0.28 0.23 0.26 0.34 0.37 0.42 0.37 0.29 0.23 0.23 0.20 0.24 0.31 0.33 0.35
0.01 0.01 0.02 0.03 0.05 0.09 0.13 0.15 0.16 0.18 0.19 0.22 0.28 0.38 0.44 0.50 0.54 0.59 0.60 0.60 0.59 0.58 0.54 0.47 0.45 0.49 0.53 0.53 0.36 0.26 0.31 0.42 0.50 0.53 0.46 0.39 0.27 0.23 0.23 0.25 0.31 0.31 0.33
0.01 0.01 0.02 0.04 0.06 0.11 0.15 0.18 0.19 0.19 0.21 0.26 0.34 0.41 0.46 0.44 0.47 0.63 0.69 0.72 0.75 0.71 0.67 0.62 0.55 0.56 0.59 0.55 0.44 0.31 0.29 0.41 0.60 0.69 0.64 0.55 0.41 0.32 0.28 0.27 0.27 0.25 0.25
0.02 0.03 0.04 0.06 0.10 0.14 0.20 0.25 0.24 0.27 0.29 0.33 0.40 0.45 0.47 0.51 0.60 0.69 0.74 0.78 0.83 0.81 0.75 0.73 0.69 0.66 0.69 0.64 0.45 0.36 0.32 0.37 0.55 0.73 0.76 0.63 0.48 0.42 0.37 0.32 0.30 0.29 0.29
0.04 0.05 0.07 0.10 0.13 0.17 0.23 0.30 0.35 0.39 0.41 0.42 0.43 0.46 0.51 0.53 0.58 0.69 0.75 0.80 0.85 0.89 0.87 0.82 0.80 0.80 0.80 0.75 0.63 0.50 0.42 0.43 0.54 0.67 0.74 0.66 0.60 0.53 0.51 0.43 0.36 0.34 0.37
0.05 0.07 0.12 0.16 0.18 0.23 0.29 0.33 0.40 0.47 0.51 0.51 0.49 0.49 0.52 0.59 0.66 0.72 0.76 0.75 0.81 0.80 0.81 0.82 0.85 0.88 0.87 0.72 0.62 0.61 0.56 0.60 0.68 0.76 0.89 0.84 0.79 0.71 0.64 0.57 0.52 0.50 0.49
0.08 0.11 0.14 0.17 0.20 0.25 0.33 0.36 0.45 0.54 0.62 0.64 0.64 0.60 0.56 0.62 0.68 0.73 0.70 0.61 0.57 0.54 0.53 0.56 0.61 0.64 0.59 0.52 0.46 0.47 0.48 0.54 0.64 0.73 0.91 0.93 0.88 0.84 0.79 0.69 0.64 0.61 0.58